SCP
0 0 1 1 0 0 0 0 0 0 0 0 0 0 0 0 0 0 0 0 0 0 0 0 0 0 0 0 0 0 0 0 0 0 0 0 0 0 0 0 0 0 0
0 0 1 1 0 0 0 0 0 0 0 0 0 0 0 0 0 0 0 0 0 0 0 0 0 0 0 0 0 0 0 0 0 0 0 0 0 0 0 0 0 0 0
0 0 1 1 0 0 0 0 0 0 0 0 0 0 0 0 0 0 0 0 0 0 0 0 0 0 0 0 0 0 0 0 0 0 0 0 0 0 0 0 0 0 0
0 0 1 1 1 0 0 0 0 0 0 0 0 0 0 0 0 0 1 0 0 0 0 0 0 0 0 0 0 0 0 0 0 0 0 0 0 0 0 0 0 0 1
0 1 1 1 1 1 0 0 0 0 0 0 0 0 0 0 1 1 1 1 1 1 0 0 0 0 0 0 0 0 0 0 0 0 0 0 0 0 0 0 0 1 1
1 1 2 1 1 1 0 0 0 0 0 0 0 0 0 1 1 1 1 1 1 1 1 1 0 0 0 0 0 0 0 0 0 0 0 0 0 0 0 0 0 0 1
1 1 2 1 1 1 1 1 0 0 0 0 0 1 1 1 1 1 1 1 1 1 1 1 1 1 0 0 0 0 0 0 0 0 0 0 0 0 0 0 0 0 0
0 1 1 1 1 1 1 1 1 1 1 1 1 1 1 1 1 1 1 1 1 1 1 1 1 1 1 1 0 0 1 0 0 0 0 0 1 1 0 0 0 0 0
0 0 1 1 1 1 1 1 1 1 1 1 1 1 1 1 1 1 1 1 1 1 1 1 1 1 1 1 1 1 1 0 0 0 0 1 1 1 1 0 0 0 0
0 0 0 0 1 1 1 1 1 1 1 1 1 1 1 1 1 1 1 1 1 1 1 1 1 1 1 1 1 1 1 1 0 0 0 1 1 1 1 1 0 0 0
0 0 0 0 0 1 1 1 1 1 1 1 1 1 1 1 0 1 1 1 1 1 1 1 1 1 1 1 1 1 1 1 1 0 1 1 1 1 1 1 1 1 0
0 0 0 0 0 0 1 1 1 1 1 1 1 1 1 1 0 0 1 1 1 1 1 1 1 1 1 1 1 1 1 1 1 1 1 2 2 1 1 1 1 1 1
0 0 0 0 0 0 1 1 1 1 1 1 1 1 1 1 1 1 1 1 1 0 0 0 0 0 0 1 1 1 1 1 1 1 1 2 2 2 1 1 1 1 1
0 0 0 0 0 0 0 1 1 1 1 1 1 1 1 1 1 1 1 1 0 0 0 0 0 0 0 1 2 2 2 2 2 2 2 2 2 2 2 2 1 1 1
0 0 0 0 0 0 0 0 0 1 1 1 1 1 1 1 1 1 1 1 1 0 0 0 0 0 0 1 2 3 3 3 3 3 2 2 2 2 2 2 2 2 2
0 0 0 0 0 0 0 0 0 0 0 1 1 1 1 1 1 1 1 1 1 1 0 0 0 0 1 1 3 3 3 3 3 3 2 1 1 2 2 2 2 2 2
0 0 0 0 0 0 0 0 0 0 0 0 0 0 1 1 1 1 1 1 1 1 1 1 1 1 1 2 3 3 3 3 3 3 2 2 1 1 1 2 2 3 3
0 0 0 0 0 0 0 0 0 0 0 0 0 0 0 0 0 0 0 0 0 0 0 0 1 1 1 1 2 2 3 3 3 3 2 2 2 1 1 1 2 3 3
0 0 0 0 0 0 0 0 0 0 0 0 0 0 0 0 0 0 0 0 0 0 0 0 0 1 1 1 1 1 2 2 2 2 2 2 2 2 1 1 1 2 2
0 0 0 0 0 0 0 0 0 0 0 0 0 0 0 0 0 0 0 0 0 0 0 0 0 1 1 1 1 1 1 1 1 1 1 2 2 2 1 1 1 1 1
0 0 0 0 0 0 0 0 0 0 0 0 0 0 0 0 0 0 0 0 0 0 0 0 0 0 0 1 0 0 0 1 1 1 1 1 1 1 1 1 1 1 1
0 0 0 0 0 0 0 0 0 0 0 0 0 0 0 0 0 0 0 0 0 0 0 0 0 0 0 0 0 0 0 0 0 0 0 0 1 1 1 1 1 1 0
-0 -0 0 0 0 0 0 0 0 0 0 0 0 0 0 0 0 0 0 0 0 0 0 0 0 0 0 0 0 0 0 0 0 0 0 0 0 0 0 0 0 0 0
-0 -0 -0 -0 0 0 0 0 0 0 0 0 0 0 0 0 0 0 0 0 0 0 0 0 0 0 0 0 0 0 0 0 0 0 0 0 0 0 0 0 0 0 0
-0 -0 0 0 0 0 0 0 0 0 0 0 0 0 0 0 0 0 0 0 0 0 0 0 0 0 0 0 0 0 0 0 0 0 0 0 0 0 0 0 0 0 0
-0 -0 0 0 0 0 0 0 0 0 0 0 0 0 0 0 0 0 0 0 0 0 0 0 0 0 0 0 0 0 0 0 0 0 0 0 0 0 0 0 0 0 0
Wind_Speed
6 10 15 12 11 9 7 6 5 4 3 3 2 2 2 2 2 2 2 2 2 2 2 2 2 2 2 2 0 2 3 4 5 6 6 7 7 7 6 5 4 2 6
8 12 14 12 10 9 8 6 5 3 3 2 1 0 0 1 1 2 3 4 4 4 4 4 4 4 3 3 2 2 2 3 3 2 3 5 7 7 6 6 6 5 5
8 13 10 11 10 9 7 6 5 4 3 2 1 1 1 1 2 3 4 5 5 5 5 5 4 4 5 4 3 3 3 3 2 2 3 3 5 8 7 6 6 6 6
6 11 11 12 10 8 8 7 6 6 4 3 3 3 3 2 2 3 3 4 5 5 4 4 4 4 4 4 5 5 5 4 3 4 4 5 6 9 8 6 6 7 7
6 9 13 15 11 9 8 8 7 7 6 5 4 4 3 2 2 3 3 2 2 2 2 2 3 3 4 4 5 7 6 5 4 6 6 1 7 9 9 7 6 6 7
7 11 14 15 12 10 9 9 8 8 7 7 6 5 5 4 2 2 3 2 1 1 1 2 3 4 4 5 6 7 7 6 5 5 6 1 6 9 9 7 6 5 6
4 11 13 14 12 10 9 9 9 8 8 8 7 6 6 5 3 2 2 0 1 1 0 1 3 4 5 5 6 7 6 6 5 5 5 2 8 10 8 6 5 4 4
4 7 11 13 12 10 9 9 9 9 9 9 8 6 5 5 5 4 3 3 2 2 1 1 2 4 5 6 7 7 6 7 7 7 6 4 11 11 8 5 3 2 3
5 3 5 9 10 11 10 10 10 9 8 8 8 7 5 3 4 4 2 3 4 4 2 1 2 4 6 7 7 7 7 9 5 5 6 4 11 11 8 5 3 2 3
3 2 3 2 8 10 10 12 11 9 8 7 7 7 5 3 4 6 6 7 7 6 4 2 1 3 5 6 7 8 9 7 5 6 4 6 12 11 9 6 4 3 3
5 3 3 5 5 1 4 11 9 8 8 7 6 8 6 4 6 8 12 10 9 7 6 6 6 5 5 6 8 9 8 4 6 6 3 10 13 11 10 8 6 4 4
5 6 5 5 6 5 4 4 4 6 6 7 6 7 6 5 5 3 7 9 8 8 9 10 11 9 7 5 8 10 5 7 6 4 5 14 13 12 10 9 7 5 4
7 7 5 5 5 5 3 1 1 1 1 5 7 5 5 4 3 2 3 5 6 8 6 8 9 6 6 6 5 7 7 7 5 3 6 14 13 12 11 10 9 7 5
8 7 5 5 4 5 4 2 1 1 2 1 1 2 2 2 2 2 2 2 3 3 5 4 4 6 8 9 8 9 10 6 4 3 6 13 13 12 12 12 10 9 8
6 6 6 3 4 4 3 3 2 2 1 2 0 1 2 1 2 2 1 2 2 2 2 3 4 5 6 7 7 7 7 7 6 5 5 12 12 12 13 13 12 11 10
6 6 6 6 7 5 4 3 3 3 2 2 2 2 3 1 1 1 1 2 2 3 3 3 4 5 5 5 5 5 5 5 5 5 6 8 12 12 13 13 13 12 11
10 8 7 7 7 7 6 5 4 4 3 2 2 3 4 3 3 2 2 3 3 4 4 4 5 5 4 3 3 3 3 4 4 5 7 7 7 11 13 14 13 12 11
13 12 9 6 6 7 6 5 4 5 5 3 3 3 5 5 3 2 2 3 4 3 3 3 3 4 4 3 2 2 2 3 5 5 5 6 6 7 10 13 13 12 11
18 16 14 11 8 6 6 5 5 4 4 4 4 3 4 4 4 2 2 3 4 3 2 3 3 3 3 3 3 3 3 3 4 5 5 6 6 6 6 11 12 11 10
18 18 17 15 13 11 7 5 4 5 4 4 4 4 4 3 4 3 3 4 3 2 2 3 4 2 2 2 3 3 3 4 3 4 4 4 5 6 6 6 6 7 10
15 16 16 15 15 12 9 7 5 4 4 4 4 4 4 4 5 3 2 3 2 1 2 2 1 2 1 1 1 2 3 4 4 4 3 2 3 4 4 5 4 4 4
12 13 13 13 13 12 10 9 7 6 4 4 4 4 4 5 5 3 2 2 3 1 2 2 1 1 1 0 0 1 2 2 2 3 2 2 1 2 3 3 3 3 3
9 9 11 11 11 12 13 10 9 7 5 4 5 4 5 5 5 4 2 3 3 1 1 1 1 1 1 1 1 1 1 1 1 1 1 1 2 2 2 2 2 3 3
7 6 8 9 10 11 12 13 14 11 9 8 6 5 6 6 5 4 3 3 3 2 1 1 2 1 1 1 1 1 1 2 2 1 1 1 3 4 3 2 2 1 2
7 6 7 8 9 11 13 14 15 13 10 8 7 7 5 4 5 4 3 2 3 2 2 1 1 1 1 0 0 1 2 2 2 2 0 0 2 1 2 2 1 1 2
7 7 8 8 8 10 12 14 15 17 16 13 10 7 5 3 3 5 4 2 2 2 1 1 1 1 1 0 1 1 1 1 0 1 1 0 1 1 2 2 1 0 2
Wind_Direction
129 130 154 161 166 169 173 178 179 166 149 139 122 135 153 155 153 142 141 160 183 201 229 247 251 261 274 277 253 106 99 89 82 78 84 91 91 87 80 61 17 91 96
121 128 154 162 169 174 179 187 188 176 163 158 160 147 208 234 242 237 222 217 215 219 231 248 256 257 258 253 235 176 146 116 109 117 126 123 110 99 84 63 45 53 65
106 124 152 163 172 178 183 189 192 190 189 195 228 257 284 283 264 274 255 240 231 229 236 248 263 263 252 243 227 204 186 161 170 231 234 200 135 113 95 76 62 55 50
109 135 153 161 172 180 187 192 197 202 206 217 241 253 258 295 303 304 303 259 235 232 243 255 265 264 256 240 224 212 201 187 207 260 260 228 146 117 103 86 71 64 58
124 111 136 154 167 181 191 197 202 208 212 224 246 258 245 262 317 336 344 324 235 220 234 257 260 255 254 242 227 218 212 200 213 261 277 244 118 123 109 94 78 71 68
140 122 137 153 165 181 194 201 205 214 217 226 239 254 249 241 272 344 7 21 72 130 191 233 246 247 248 240 232 227 224 212 214 254 268 204 119 122 115 108 97 84 75
69 114 138 153 167 183 196 204 209 216 222 231 236 253 250 227 232 271 324 15 114 113 182 246 250 245 242 234 231 230 227 219 227 269 273 125 122 126 121 120 112 103 95
68 106 139 157 169 185 199 209 215 220 226 233 235 245 254 236 233 240 248 217 182 156 114 316 272 258 246 237 230 225 216 217 231 252 257 141 139 132 129 130 120 112 115
52 59 135 162 175 187 198 206 212 220 230 238 236 239 251 264 256 240 222 198 181 158 130 63 333 288 258 241 229 218 210 214 249 275 277 144 144 140 143 150 142 125 123
55 35 7 221 178 181 195 203 200 206 220 237 240 237 234 228 238 234 215 200 186 168 162 175 294 314 289 254 232 216 212 208 228 256 261 146 147 149 158 170 160 142 138
171 143 86 354 15 23 191 179 188 199 213 227 235 230 224 231 236 224 221 204 187 191 206 222 236 252 280 259 232 216 207 209 223 234 223 147 152 158 168 178 167 155 151
124 73 42 26 15 359 14 118 186 194 197 205 222 209 203 220 237 245 153 168 192 216 228 235 238 240 238 240 225 210 201 210 233 226 158 156 158 165 176 185 176 169 167
79 71 46 37 14 2 0 40 355 327 218 202 222 207 188 209 224 213 166 178 205 220 229 240 233 228 224 221 218 192 204 209 211 207 163 164 164 171 185 192 187 180 177
80 76 48 22 34 20 3 16 337 273 267 260 229 229 201 203 220 238 224 224 217 208 207 224 211 217 220 225 215 190 200 205 188 180 165 169 167 177 191 198 196 191 187
69 90 78 25 21 31 8 335 304 292 336 331 29 349 299 239 225 224 223 251 271 289 263 218 236 244 240 231 218 198 198 190 181 180 160 174 170 181 195 202 202 201 196
28 60 61 35 24 14 342 342 347 356 351 315 335 291 274 255 261 238 233 258 251 258 283 286 272 257 251 235 222 205 187 174 185 180 161 176 177 184 197 204 204 203 200
14 26 36 38 15 346 344 2 345 319 311 342 338 321 304 261 228 226 231 250 246 233 238 253 272 285 287 271 223 193 172 184 198 199 171 169 180 192 199 204 205 203 200
10 10 13 16 7 341 341 353 340 330 337 343 325 319 313 305 272 222 231 254 258 247 237 249 250 272 283 285 269 238 214 211 217 218 190 172 169 182 201 204 205 205 203
13 8 2 358 353 337 330 325 303 297 317 317 306 302 297 307 314 293 248 249 263 260 252 263 261 245 260 272 259 241 230 222 226 230 214 192 182 174 178 202 204 205 208
16 10 3 356 350 342 331 326 325 318 306 295 296 300 298 298 296 285 273 264 264 282 283 280 280 276 250 263 274 262 237 227 229 235 237 221 198 186 173 173 189 209 211
18 10 2 357 351 347 339 332 320 309 306 300 280 272 290 289 285 276 286 307 301 300 296 295 306 337 321 349 320 290 266 237 227 226 225 242 220 187 167 160 168 173 192
18 8 357 353 346 343 334 324 307 293 277 276 297 304 298 290 280 271 260 280 283 273 327 333 9 10 314 170 169 299 308 306 258 210 190 200 214 165 158 149 160 150 140
14 4 352 343 343 344 338 327 319 310 300 286 272 259 252 259 268 259 262 281 291 281 282 312 18 7 268 260 185 135 107 292 315 10 116 105 99 101 104 111 103 119 134
359 350 339 338 344 348 345 338 329 315 300 286 269 245 224 223 242 244 231 254 274 269 244 239 227 150 80 334 343 93 105 92 59 44 10 98 104 91 93 93 72 88 109
337 334 331 340 348 348 345 340 331 318 304 294 291 279 247 219 221 221 208 249 262 255 256 261 95 87 96 181 315 75 53 56 51 94 130 67 77 113 122 111 101 56 99
329 332 334 339 346 347 345 339 330 321 311 301 290 285 273 245 220 203 187 215 262 254 237 195 151 176 210 235 80 77 109 117 133 126 129 174 185 227 128 106 85 199 135